[[{"header":{"parameterUnit":"m.s-1","parameterCategory":1,"la1":30.2991,"la2":30.254,"lo1":-89.0895,"lo2":-89.0444,"dy":0.0017,"dx":0.0017,"nx":28,"ny":28,"refTime":"2025-01-19T09:00:00:Z","depth":0,"parameterNumber":2,"parameterNumberName":"U-component_of_WINDS"},"data":[0,0,0,0,0,0,0,0,0,0,0,0,0,0,0,0,0,0,0,0,0,0,0,0,0,0,0,0,0,0,0,0,0,0,0,0,0,0,0,0,0,0,0,0,0,0,0,0,0,0,0,0,0,0,0,0,0,0,-3.6539,-3.654,0,-3.6599,-3.66,-3.66,-3.6504,-3.6501,-3.6498,-3.6494,-3.6556,-3.6561,-3.6566,0,0,0,0,0,0,0,0,0,0,0,0,0,-3.6341,-3.6345,-3.6539,-3.654,-3.6541,-3.6599,-3.66,-3.6601,-3.6505,-3.6501,-3.6497,-3.6493,-3.6555,-3.656,-3.6566,0,0,0,0,0,0,0,0,0,0,0,0,0,-3.6417,-3.6347,-3.6539,-3.65,-3.6497,-3.6599,-3.66,-3.6601,-3.6506,-3.6501,-3.6496,-3.6491,-3.6553,-3.656,-3.6567,-3.671,0,0,-3.6588,-3.6592,0,0,0,0,0,0,0,0,-3.6413,-3.6424,-3.6505,-3.6503,-3.65,-3.6539,-3.6552,-3.6637,-3.6507,-3.6502,-3.6494,-3.6489,-3.6555,-3.6561,-3.6583,-3.6713,-3.6715,-3.6589,-3.6593,-3.6596,-3.6598,0,0,0,0,0,0,0,-3.6408,-3.6421,-3.6563,-3.6506,-3.6503,-3.6479,-3.6484,-3.6568,-3.6556,-3.6502,-3.6496,-3.6504,-3.6552,-3.6577,-3.6584,-3.6716,-3.6589,-3.6595,-3.66,-3.6602,-3.6964,-3.6969,0,0,0,0,0,0,-3.6407,-3.6417,-3.6561,-3.6565,-3.6443,-3.6487,-3.6493,-3.6531,-3.6554,-3.6553,-3.6508,-3.6499,-3.6567,-3.6576,-3.6586,-3.6754,-3.6596,-3.6603,-3.6607,-3.6959,-3.6965,-3.6971,0,0,0,0,0,0,-3.6403,-3.6421,-3.6559,-3.6489,-3.6505,-3.6495,-3.654,-3.6535,-3.656,-3.6559,-3.6556,-3.6536,-3.6564,-3.6576,-3.6679,-3.6755,-3.6606,-3.6613,-3.6952,-3.6961,-3.6968,-3.7092,0,0,0,0,0,0,-3.6398,-3.642,-3.6475,-3.6491,-3.6509,-3.6652,-3.6545,-3.654,-3.6572,-3.6561,-3.6584,-3.6583,-3.6561,-3.6669,-3.6686,-3.6762,-3.6618,-3.6946,-3.6956,-3.6965,-3.7081,-3.7103,-3.7122,0,0,0,0,0,-3.6391,-3.6508,-3.6478,-3.6496,-3.6577,-3.6656,-3.6666,-3.6638,-3.6579,-3.6633,-3.6632,-3.6582,-3.6744,-3.6681,-3.6699,-3.6778,-3.6941,-3.6953,-3.6965,-3.7072,-3.7098,-3.7121,0,0,0,0,0,0,-3.6501,-3.6509,-3.6476,-3.6602,-3.6629,-3.664,-3.6708,-3.6668,-3.6713,-3.6701,-3.6664,-3.667,-3.6781,-3.6789,-3.6719,-3.6916,-3.6832,-3.6848,-3.6907,-3.6933,-3.6953,-3.6948,-3.6624,0,0,0,0,0,-3.654,-3.6604,-3.6607,-3.6717,-3.6732,-3.6718,-3.6751,-3.6727,-3.6754,-3.6765,-3.6772,-3.68,-3.6856,-3.6895,-3.6947,-3.7081,-3.7084,-3.7144,-3.7165,-3.7182,-3.7196,-3.7266,-3.7293,-3.701,-3.701,-3.701,0,0,-3.6621,-3.6633,-3.6676,-3.6739,-3.6758,-3.6824,-3.6728,-3.6803,-3.6852,-3.6777,-3.6874,-3.688,-3.6909,-3.7028,-3.708,-3.7038,-3.7274,-3.7197,-3.721,-3.7216,-3.7281,-3.7308,-3.7332,-3.7019,-3.7017,-3.7016,0,0,-3.6802,-3.6818,-3.691,-3.693,-3.6959,-3.6948,-3.6971,-3.6987,-3.6988,-3.7085,-3.703,-3.7087,-3.7186,-3.7208,-3.7233,-3.742,-3.7375,-3.7438,-3.7546,-3.7614,-3.7636,-3.7656,-3.7722,-3.7746,-3.7453,-3.7453,-3.7453,0,-3.6899,-3.6996,-3.6963,-3.7041,-3.7071,-3.7005,-3.7098,-3.7119,-3.7164,-3.7185,-3.7137,-3.7259,-3.7273,-3.7396,-3.7441,-3.7464,-3.7487,-3.7436,-3.7636,-3.7655,-3.7673,-3.7735,-3.776,-3.746,-3.746,-3.7459,-3.7458,0,-3.7114,-3.7182,-3.7254,-3.7297,-3.7335,-3.742,-3.7399,-3.7441,-3.7413,-3.7408,-3.7507,-3.7522,-3.7575,-3.7602,-3.7577,-3.7721,-3.7694,-3.7642,-3.7556,-3.7708,-3.7766,-3.779,-3.7471,-3.7468,-3.7466,-3.7464,0,0,-3.7367,-3.739,-3.7417,-3.7435,-3.7461,-3.7513,-3.7595,-3.7646,-3.7682,-3.7715,-3.7782,-3.7866,-3.7818,-3.7845,-3.7821,-3.7881,-3.8028,-3.7821,-3.7821,-3.7859,-3.8187,-3.8226,-3.8254,-3.7998,-3.8002,-3.8006,-3.8184,0,-3.7546,-3.7687,-3.7659,-3.7797,-3.7859,-3.7797,-3.7867,-3.7891,-3.7887,-3.7939,-3.7935,-3.7995,-3.7927,-3.7943,-3.8,-3.7998,-3.8093,-3.7985,-3.8059,-3.8063,-3.8054,-3.8284,-3.8326,-3.8494,-3.8206,-3.821,-3.8213,0,-3.7775,-3.7815,-3.7959,-3.7973,-3.7998,-3.8063,-3.8107,-3.8158,-3.8182,-3.8175,-3.8206,-3.8169,-3.8249,-3.8163,-3.8273,-3.82,-3.8228,-3.8232,-3.8238,-3.8243,-3.8147,-3.8296,-3.8547,-3.8572,-3.8249,-3.8246,-3.8243,0,-3.7944,-3.8034,-3.8131,-3.8149,-3.8169,-3.8215,-3.8225,-3.8245,-3.8277,-3.8316,-3.8336,-3.8384,-3.841,-3.8448,-3.8425,-3.8364,-3.8539,-3.845,-3.8535,-3.8535,-3.8574,-3.8572,-3.8833,-3.8594,-3.8593,-3.8593,-3.8592,0,-3.8148,-3.8238,-3.8207,-3.8268,-3.8366,-3.8333,-3.8431,-3.8434,-3.8452,-3.8511,-3.846,-3.8516,-3.8482,-3.8536,-3.8519,-3.8611,-3.8624,-3.862,-3.8614,-3.8625,-3.8625,-3.8643,-3.8631,-3.86,-3.8598,-3.8597,-3.8596,0,-3.8354,-3.8337,-3.8439,-3.8448,-3.8453,-3.8525,-3.8533,-3.8588,-3.858,-3.8655,-3.8671,-3.8658,-3.8718,-3.8699,-3.8764,-3.8752,-3.887,-3.885,-3.8862,-3.8857,-3.8942,-3.8934,-3.9223,-3.9258,-3.8997,-3.9,-3.9002,0,-3.8485,-3.8552,-3.8569,-3.8604,-3.8618,-3.8676,-3.8708,-3.8677,-3.8713,-3.8745,-3.8797,-3.8852,-3.8895,-3.8993,-3.899,-3.9039,-3.9019,-3.9117,-3.9026,-3.9034,-3.902,-3.9016,-3.9022,-3.9135,-3.9138,-3.914,-3.9142,0,-3.8718,-3.8706,-3.8755,-3.88,-3.884,-3.8875,-3.8905,-3.8937,-3.8907,-3.895,-3.901,-3.9043,-3.9109,-3.9164,-3.9208,-3.9218,-3.9176,-3.9171,-3.9193,-3.9204,-3.9208,-3.9206,-3.8911,-3.9164,-3.9162,-3.9161,-3.9159,-3.9159,-3.889,-3.8947,-3.8967,-3.9022,-3.9041,-3.907,-3.9122,-3.912,-3.917,-3.922,-3.9199,-3.9268,-3.9289,-3.9344,-3.9359,-3.9413,-3.9375,-3.9407,-3.9415,-3.9424,-3.9434,-3.92,-3.9421,-3.942,-3.942,-3.9419,-3.9419,0,-3.912,-3.9129,-3.9181,-3.9224,-3.9267,-3.9222,-3.9253,-3.9292,-3.9354,-3.9377,-3.9419,-3.9488,-3.9541,-3.9542,-3.9591,-3.9633,-3.9615,-3.9647,-3.9644,-3.9646,-3.9465,-3.9441,-3.9661,-3.9661,-3.9661,-3.9661,-3.9661,-3.9661,-3.9245,-3.9338,-3.9329,-3.943,-3.9439,-3.9506,-3.9527,-3.9553,-3.9571,-3.965,-3.9693,-3.9693,-3.9707,-3.9756,-3.9802,-3.9801,-3.9821,-3.9861,-3.9852,-3.9683,-3.9659,-3.9636,-3.9613,-3.9866,-3.9866,-4.0028,-4.003,-4.0031]},{"header":{"parameterUnit":"m.s-1","parameterCategory":1,"la1":30.2991,"la2":30.254,"lo1":-89.0895,"lo2":-89.0444,"dy":0.0017,"dx":0.0017,"nx":28,"ny":28,"refTime":"2025-01-19T09:00:00:Z","depth":0,"parameterNumber":3,"parameterNumberName":"V-component_of_WINDS"},"data":[0,0,0,0,0,0,0,0,0,0,0,0,0,0,0,0,0,0,0,0,0,0,0,0,0,0,0,0,0,0,0,0,0,0,0,0,0,0,0,0,0,0,0,0,0,0,0,0,0,0,0,0,0,0,0,0,0,0,-5.2701,-5.2702,0,-5.2774,-5.2774,-5.2775,-5.2709,-5.2707,-5.2704,-5.2701,-5.2772,-5.2776,-5.2781,0,0,0,0,0,0,0,0,0,0,0,0,0,-5.25,-5.2504,-5.2701,-5.2702,-5.2703,-5.2773,-5.2774,-5.2775,-5.271,-5.2707,-5.2703,-5.27,-5.2771,-5.2776,-5.2781,0,0,0,0,0,0,0,0,0,0,0,0,0,-5.2581,-5.2505,-5.2701,-5.2679,-5.2677,-5.2773,-5.2774,-5.2776,-5.271,-5.2706,-5.2702,-5.2699,-5.2769,-5.2775,-5.2782,-5.2902,0,0,-5.2802,-5.2805,0,0,0,0,0,0,0,0,-5.2577,-5.2589,-5.2681,-5.268,-5.2679,-5.2728,-5.2729,-5.2818,-5.2711,-5.2698,-5.2701,-5.2697,-5.2761,-5.2768,-5.279,-5.2906,-5.2909,-5.2802,-5.2806,-5.2809,-5.2811,0,0,0,0,0,0,0,-5.2571,-5.2585,-5.2729,-5.2682,-5.2681,-5.2663,-5.267,-5.2746,-5.2751,-5.2699,-5.2694,-5.2704,-5.2759,-5.2784,-5.2791,-5.291,-5.2802,-5.2808,-5.2812,-5.2815,-5.3125,-5.3129,0,0,0,0,0,0,-5.2568,-5.2581,-5.2727,-5.2732,-5.2617,-5.267,-5.2678,-5.2716,-5.275,-5.2751,-5.2707,-5.27,-5.2774,-5.2783,-5.2793,-5.2934,-5.2809,-5.2815,-5.2819,-5.312,-5.3126,-5.313,0,0,0,0,0,0,-5.2564,-5.2582,-5.2724,-5.2655,-5.2672,-5.2678,-5.2721,-5.272,-5.2744,-5.2756,-5.2756,-5.2732,-5.2772,-5.2784,-5.2875,-5.2936,-5.2818,-5.2824,-5.3115,-5.3122,-5.3128,-5.3219,0,0,0,0,0,0,-5.2559,-5.2581,-5.2628,-5.2657,-5.2676,-5.2807,-5.2725,-5.2724,-5.2756,-5.2748,-5.2779,-5.278,-5.2769,-5.2866,-5.2882,-5.2943,-5.2829,-5.311,-5.3118,-5.3126,-5.3211,-5.3228,-5.3242,0,0,0,0,0,-5.2552,-5.2651,-5.2631,-5.2649,-5.2735,-5.2811,-5.2821,-5.2808,-5.2762,-5.2808,-5.2815,-5.2779,-5.2927,-5.2876,-5.2893,-5.2957,-5.3106,-5.3116,-5.3125,-5.3203,-5.3224,-5.3242,0,0,0,0,0,0,-5.2629,-5.2654,-5.2633,-5.2744,-5.2776,-5.2799,-5.2858,-5.2831,-5.2876,-5.2866,-5.2847,-5.2854,-5.295,-5.2963,-5.2905,-5.3074,-5.3009,-5.3022,-5.3062,-5.3082,-5.3098,-5.3092,-5.2835,0,0,0,0,0,-5.2659,-5.2719,-5.2738,-5.2834,-5.2851,-5.2852,-5.2884,-5.2871,-5.2903,-5.2916,-5.2929,-5.296,-5.3013,-5.3048,-5.3098,-5.3212,-5.3216,-5.3265,-5.3281,-5.3294,-5.3305,-5.3364,-5.3385,-5.3162,-5.3162,-5.3162,0,0,-5.2721,-5.2742,-5.2782,-5.285,-5.2873,-5.2934,-5.2864,-5.2932,-5.2976,-5.2925,-5.3012,-5.3023,-5.3056,-5.3159,-5.3205,-5.3172,-5.3368,-5.3306,-5.3316,-5.3321,-5.3376,-5.3397,-5.3416,-5.3169,-5.3167,-5.3166,0,0,-5.2865,-5.2889,-5.2971,-5.2995,-5.3031,-5.3031,-5.305,-5.3078,-5.3083,-5.3171,-5.3133,-5.3185,-5.3277,-5.3302,-5.3326,-5.3478,-5.3446,-5.3495,-5.3577,-5.3635,-5.3652,-5.3668,-5.372,-5.3739,-5.3506,-5.3507,-5.3507,0,-5.2938,-5.303,-5.3016,-5.3086,-5.3116,-5.3074,-5.3155,-5.3179,-5.3229,-5.325,-5.3213,-5.3327,-5.3346,-5.3453,-5.349,-5.3512,-5.3531,-5.3491,-5.3651,-5.3667,-5.3681,-5.373,-5.375,-5.3512,-5.3511,-5.3511,-5.351,0,-5.3116,-5.3181,-5.3242,-5.3292,-5.3329,-5.3405,-5.34,-5.3438,-5.3422,-5.3425,-5.3512,-5.3534,-5.3586,-5.3611,-5.3595,-5.3714,-5.3693,-5.3655,-5.3588,-5.3708,-5.3754,-5.3773,-5.352,-5.3518,-5.3516,-5.3515,0,0,-5.3311,-5.3351,-5.3374,-5.3395,-5.3431,-5.348,-5.3552,-5.3604,-5.3637,-5.3672,-5.3731,-5.381,-5.3774,-5.3802,-5.3788,-5.3839,-5.3955,-5.3794,-5.3794,-5.3821,-5.4085,-5.4112,-5.4135,-5.3934,-5.3938,-5.3941,-5.4081,0,-5.3455,-5.3583,-5.3571,-5.3691,-5.3749,-5.3709,-5.3772,-5.3799,-5.3804,-5.3852,-5.3856,-5.3911,-5.3861,-5.3877,-5.3925,-5.3931,-5.4007,-5.3921,-5.3987,-5.3989,-5.3978,-5.4159,-5.4189,-5.4321,-5.4099,-5.4103,-5.4105,0,-5.3641,-5.3683,-5.3809,-5.3835,-5.3858,-5.3915,-5.3961,-5.4008,-5.4038,-5.4037,-5.4068,-5.4045,-5.4116,-5.4049,-5.4145,-5.4086,-5.4112,-5.4119,-5.4123,-5.4128,-5.4053,-5.4166,-5.4363,-5.4382,-5.4133,-5.4131,-5.4129,0,-5.3767,-5.3856,-5.3942,-5.3962,-5.3994,-5.4035,-5.405,-5.4076,-5.4107,-5.4146,-5.4166,-5.4213,-5.4238,-5.4274,-5.4264,-5.4216,-5.4361,-5.4294,-5.436,-5.436,-5.4391,-5.4389,-5.4593,-5.4412,-5.4411,-5.4411,-5.441,0,-5.3929,-5.4007,-5.4,-5.4053,-5.4138,-5.4123,-5.4208,-5.4217,-5.424,-5.4293,-5.4261,-5.431,-5.4295,-5.4343,-5.4336,-5.4414,-5.4427,-5.4426,-5.4423,-5.4428,-5.4428,-5.4444,-5.4434,-5.4416,-5.4415,-5.4414,-5.4413,0,-5.4084,-5.4083,-5.4174,-5.4197,-5.4204,-5.4266,-5.4285,-5.4334,-5.4335,-5.4402,-5.4416,-5.4418,-5.4473,-5.4467,-5.4528,-5.4523,-5.4621,-5.4607,-5.4611,-5.4607,-5.4673,-5.4666,-5.4892,-5.492,-5.4723,-5.4725,-5.4727,0,-5.4186,-5.4246,-5.4275,-5.4308,-5.4326,-5.4381,-5.4412,-5.4399,-5.4433,-5.447,-5.4514,-5.4566,-5.4607,-5.4696,-5.4702,-5.4748,-5.4734,-5.4811,-5.4741,-5.4744,-5.4733,-5.4729,-5.4734,-5.4824,-5.4826,-5.4828,-5.4829,0,-5.4367,-5.4363,-5.4411,-5.4458,-5.4497,-5.4533,-5.4566,-5.4595,-5.4584,-5.4624,-5.468,-5.4712,-5.4774,-5.4826,-5.4869,-5.4882,-5.4854,-5.4851,-5.4869,-5.4874,-5.4873,-5.4872,-5.4646,-5.4846,-5.4844,-5.4843,-5.4842,-5.4841,-5.4498,-5.4548,-5.4576,-5.4629,-5.4652,-5.4683,-5.473,-5.4737,-5.4784,-5.4834,-5.4823,-5.4886,-5.4912,-5.4967,-5.4985,-5.5033,-5.5004,-5.503,-5.5036,-5.5043,-5.5049,-5.4867,-5.5041,-5.504,-5.504,-5.5039,-5.5039,0,-5.4675,-5.4691,-5.474,-5.4787,-5.4829,-5.4799,-5.4834,-5.487,-5.4926,-5.4953,-5.4994,-5.5057,-5.5106,-5.5116,-5.5162,-5.5198,-5.5186,-5.5211,-5.5207,-5.521,-5.5073,-5.5052,-5.522,-5.522,-5.522,-5.522,-5.522,-5.522,-5.4772,-5.4854,-5.4853,-5.4945,-5.496,-5.5022,-5.5044,-5.5071,-5.5093,-5.5165,-5.5207,-5.5213,-5.5232,-5.528,-5.5323,-5.5324,-5.5341,-5.5371,-5.5367,-5.5238,-5.522,-5.5203,-5.5183,-5.5376,-5.5376,-5.55,-5.5501,-5.5502]}]]